Location: Maiden
(35.5760°N, 81.2120°W)
Time: 03:31:23
(UTC-04:00)

MONITOR-E - Pass Details

Date: 02 August 2020
Orbit: 276 x 281 km, 97.0° (Epoch: 12 August)

Event Time Altitude Azimuth Distance (km) Brightness Sun altitude
Exits shadow 21:22:10 16° 153° (SSE) 883 5.4 -10.8°
Maximum altitude 21:23:55 55° 78° (ENE) 358 3.6 -11.1°
Drops below altitude 10° 21:26:20 10° 358° (N) 1,156 7.0 -11.5°
Sets 21:28:12 0° 354° (N) 1,980 8.3 -11.9°
